Weather History for KTMK - August, 2014

Change the Weather History Date:

Saturday, August 16, 2014

  Actual Average (KMMV) Record (KMMV)
Temperature  
Mean Temperature 63 °F 66 °F  
Max Temperature 73 °F 82 °F 108 °F (1927)
Min Temperature 53 °F 51 °F 38 °F (1955)
Degree Days  
Heating Degree Days 2 1  
Month to date heating degree days 16  
Since 1 July heating degree days 60  
Cooling Degree Days 0 3  
Month to date cooling degree days 48  
Year to date cooling degree days 148  
Growing Degree Days 13 (Base 50)    
Moisture  
Dew Point 58 °F    
Average Humidity 85    
Maximum Humidity 100    
Minimum Humidity 61    
Precipitation  
Precipitation 0.00 in 0.02 in 0.38 in (1912)
Month to date precipitation 0.23  
Year to date precipitation 21.98  
Sea Level Pressure  
Sea Level Pressure 30.10 in    
Wind  
Wind Speed 2 mph (NW)    
Max Wind Speed 14 mph    
Max Gust Speed 17 mph    
Visibility 8 miles    
Events Fog    
T = Trace of Precipitation, MM = Missing Value Source: NWS Daily Summary

Daily Weather History Graph

Daily Weather History Graph

Search for Another Location

Airport or City:

Trip Planner

Search our weather history database for the weather conditions in past years. The results will help you decide how hot, cold, wet, or windy it might be!

Date:

Astronomy

Aug. 16, 2014 Rise Set
Actual Time 7:17 AM MDT 9:20 PM MDT
Civil Twilight 6:45 AM MDT 9:52 PM MDT
Nautical Twilight 6:05 AM MDT 10:32 PM MDT
Astronomical Twilight 5:21 AM MDT 11:15 PM MDT
Moon 12:08 AM MDT (8/16) 2:30 PM MDT (8/16)
Length of Visible Light 15h 07m
Length of Day
14h 03m
Waning Gibbous, 58% of the Moon is Illuminated
Aug 16
Waning Gibbous
Aug 17
Last Quarter
Aug 25
New
Sep 2
First Quarter
Sep 8
Full

Hourly Weather History & Observations

Time (MDT) Temp. Dew Point Humidity Pressure Visibility Wind Dir Wind Speed Gust Speed Precip Events Conditions
12:15 AM 59.0 °F 59.0 °F 100% 30.09 in 10.0 mi Calm Calm - N/A   Mostly Cloudy
12:35 AM 59.0 °F 59.0 °F 100% 30.09 in 10.0 mi Calm Calm - N/A   Overcast
12:55 AM 59.0 °F 59.0 °F 100% 30.09 in 10.0 mi Calm Calm - N/A   Overcast
1:15 AM 59.0 °F 59.0 °F 100% 30.09 in 10.0 mi Calm Calm - N/A   Overcast
1:35 AM 59.0 °F 59.0 °F 100% 30.08 in 10.0 mi Calm Calm - N/A   Mostly Cloudy
1:55 AM 57.2 °F 55.4 °F 94% 30.08 in 10.0 mi Calm Calm - N/A   Clear
2:15 AM 57.2 °F 57.2 °F 100% 30.08 in 10.0 mi Calm Calm - N/A   Clear
2:35 AM 55.4 °F 55.4 °F 100% 30.09 in 10.0 mi Calm Calm - N/A   Clear
2:55 AM 55.4 °F 55.4 °F 100% 30.08 in 10.0 mi Calm Calm - N/A   Clear
3:15 AM 55.4 °F 55.4 °F 100% 30.09 in 10.0 mi Calm Calm - N/A   Clear
3:35 AM 55.4 °F 53.6 °F 94% 30.09 in 10.0 mi Calm Calm - N/A   Mostly Cloudy
3:55 AM 55.4 °F 55.4 °F 100% 30.09 in 10.0 mi Calm Calm - N/A   Mostly Cloudy
4:15 AM 53.6 °F 53.6 °F 100% 30.09 in 10.0 mi Calm Calm - N/A   Scattered Clouds
4:35 AM 55.4 °F 55.4 °F 100% 30.09 in 10.0 mi Calm Calm - N/A   Mostly Cloudy
4:55 AM 55.4 °F 55.4 °F 100% 30.09 in 10.0 mi Calm Calm - N/A   Overcast
5:15 AM 55.4 °F 53.6 °F 94% 30.09 in 10.0 mi Calm Calm - N/A   Mostly Cloudy
5:35 AM 53.6 °F 53.6 °F 100% 30.09 in 10.0 mi Calm Calm - N/A   Overcast
5:55 AM 53.6 °F 53.6 °F 100% 30.09 in 2.0 mi Calm Calm - N/A   Overcast
6:15 AM 53.6 °F 53.6 °F 100% 30.09 in 0.2 mi Calm Calm - N/A Fog Fog
6:35 AM 53.6 °F 53.6 °F 100% 30.09 in 0.5 mi Calm Calm - N/A Fog Fog
6:55 AM 53.6 °F 53.6 °F 100% 30.09 in 0.5 mi Calm Calm - N/A Fog Fog
7:15 AM 53.6 °F 53.6 °F 100% 30.10 in 0.2 mi SE 3.5 mph - N/A Fog Fog
7:35 AM 53.6 °F 53.6 °F 100% 30.10 in 0.2 mi Calm Calm - N/A Fog Fog
7:55 AM 53.6 °F 53.6 °F 100% 30.11 in 0.2 mi Calm Calm - N/A Fog Fog
8:15 AM 55.4 °F 55.4 °F 100% 30.11 in 10.0 mi Calm Calm - N/A   Overcast
8:35 AM 55.4 °F 55.4 °F 100% 30.11 in 3.0 mi Calm Calm - N/A   Mostly Cloudy
8:55 AM 55.4 °F 55.4 °F 100% 30.12 in 0.2 mi Calm Calm - N/A Fog Fog
9:15 AM 55.4 °F 55.4 °F 100% 30.12 in 1.0 mi Calm Calm - N/A   Overcast
9:35 AM 57.2 °F 57.2 °F 100% 30.12 in 0.2 mi Calm Calm - N/A Fog Fog
9:55 AM 59.0 °F 59.0 °F 100% 30.12 in 0.2 mi Calm Calm - N/A Fog Fog
10:15 AM 59.0 °F 59.0 °F 100% 30.12 in 1.0 mi Calm Calm - N/A   Overcast
10:35 AM 60.8 °F 60.8 °F 100% 30.12 in 10.0 mi Calm Calm - N/A   Scattered Clouds
10:55 AM 62.6 °F 62.6 °F 100% 30.12 in 10.0 mi Calm Calm - N/A   Clear
11:15 AM 66.2 °F 62.6 °F 88% 30.12 in 10.0 mi Calm Calm - N/A   Clear
11:35 AM 68.0 °F 60.8 °F 78% 30.12 in 10.0 mi Calm Calm - N/A   Clear
11:55 AM 69.8 °F 60.8 °F 73% 30.12 in 10.0 mi WNW 3.5 mph - N/A   Clear
12:15 PM 69.8 °F 60.8 °F 73% 30.12 in 10.0 mi West 5.8 mph - N/A   Clear
12:35 PM 69.8 °F 60.8 °F 73% 30.12 in 10.0 mi WNW 3.5 mph - N/A   Clear
12:55 PM 71.6 °F 60.8 °F 69% 30.11 in 10.0 mi NW 4.6 mph - N/A   Clear
1:15 PM 73.4 °F 60.8 °F 65% 30.11 in 10.0 mi WNW 5.8 mph - N/A   Clear
1:35 PM 71.6 °F 60.8 °F 69% 30.11 in 10.0 mi WNW 6.9 mph - N/A   Clear
1:55 PM 73.4 °F 60.8 °F 65% 30.11 in 10.0 mi NW 8.1 mph - N/A   Clear
2:15 PM 71.6 °F 59.0 °F 64% 30.11 in 10.0 mi NW 9.2 mph - N/A   Clear
2:35 PM 73.4 °F 60.8 °F 65% 30.11 in 10.0 mi NW 10.4 mph - N/A   Clear
2:55 PM 71.6 °F 59.0 °F 64% 30.11 in 10.0 mi NW 8.1 mph - N/A   Clear
3:15 PM 71.6 °F 59.0 °F 64% 30.11 in 10.0 mi NW 6.9 mph - N/A   Clear
3:35 PM 73.4 °F 59.0 °F 61% 30.10 in 10.0 mi NW 8.1 mph - N/A   Clear
3:55 PM 73.4 °F 59.0 °F 61% 30.10 in 10.0 mi NW 10.4 mph - N/A   Clear
4:15 PM 73.4 °F 59.0 °F 61% 30.10 in 10.0 mi NNW 9.2 mph - N/A   Clear
4:35 PM 73.4 °F 59.0 °F 61% 30.09 in 10.0 mi NW 10.4 mph - N/A   Clear
4:55 PM 71.6 °F 59.0 °F 64% 30.09 in 10.0 mi NW 12.7 mph 16.1 mph N/A   Clear
5:15 PM 71.6 °F 59.0 °F 64% 30.09 in 10.0 mi NW 13.8 mph - N/A   Clear
5:35 PM 69.8 °F 59.0 °F 68% 30.09 in 10.0 mi NW 11.5 mph - N/A   Clear
5:55 PM 69.8 °F 59.0 °F 68% 30.09 in 10.0 mi NW 13.8 mph 17.3 mph N/A   Clear
6:15 PM 69.8 °F 59.0 °F 68% 30.08 in 10.0 mi NW 11.5 mph - N/A   Clear
6:35 PM 69.8 °F 59.0 °F 68% 30.08 in 10.0 mi NW 12.7 mph - N/A   Clear
6:55 PM 69.8 °F 59.0 °F 68% 30.08 in 10.0 mi NW 10.4 mph - N/A   Clear
7:15 PM 69.8 °F 59.0 °F 68% 30.08 in 10.0 mi NW 11.5 mph - N/A   Clear
7:35 PM 69.8 °F 59.0 °F 68% 30.08 in 10.0 mi NW 5.8 mph - N/A   Clear
7:55 PM 68.0 °F 59.0 °F 73% 30.07 in 10.0 mi NNW 8.1 mph - N/A   Clear
8:15 PM 68.0 °F 59.0 °F 73% 30.07 in 10.0 mi NW 4.6 mph - N/A   Clear
8:35 PM 66.2 °F 59.0 °F 78% 30.07 in 10.0 mi SSW 3.5 mph - N/A   Clear
8:55 PM 64.4 °F 59.0 °F 83% 30.07 in 10.0 mi NE 4.6 mph - N/A   Clear
9:15 PM 64.4 °F 59.0 °F 83% 30.08 in 10.0 mi Calm Calm - N/A   Clear
9:35 PM 62.6 °F 57.2 °F 82% 30.09 in 10.0 mi Calm Calm - N/A   Clear
9:55 PM 60.8 °F 57.2 °F 88% 30.09 in 10.0 mi Calm Calm - N/A   Clear
10:15 PM 60.8 °F 57.2 °F 88% 30.09 in 10.0 mi Calm Calm - N/A   Clear
10:35 PM 60.8 °F 57.2 °F 88% 30.09 in 10.0 mi NNE 3.5 mph - N/A   Clear
10:55 PM 59.0 °F 57.2 °F 94% 30.09 in 10.0 mi Calm Calm - N/A   Clear
11:15 PM 59.0 °F 57.2 °F 94% 30.09 in 7.0 mi Calm Calm - N/A   Clear
11:35 PM 59.0 °F 57.2 °F 94% 30.09 in 7.0 mi Calm Calm - N/A   Clear
11:55 PM 59.0 °F 57.2 °F 94% 30.09 in 7.0 mi Calm Calm - N/A   Clear